Location: Cerroniocc
(13.7547°S, 72.0222°W)
Time: 22:43:15
(UTC+00:00)

USA 215 - Pass Details

Date: 05 July 2020
Orbit: 1102 x 1106 km, 123.0° (Epoch: 08 August)

Event Time Altitude Azimuth Distance (km) Brightness Sun altitude
Rises 23:07:35 0° 44° (NE) 3,904 5.9 -8.6°
Reaches altitude 10° 23:10:04 10° 47° (NE) 2,951 5.3 -9.1°
Maximum altitude 23:16:31 67° 128° (SE) 1,186 3.2 -10.6°
Drops below altitude 10° 23:23:01 10° 210° (SSW) 2,971 5.6 -12.1°
Sets 23:25:32 0° 212° (SSW) 3,932 6.3 -12.6°
